Retour au catalogue

STARLINK-34220

ActifCommunicationsVLEO
NORAD 64930·PAYLOAD·🇺🇸 United States

Lancé Jul 26, 2025 depuis Cape Canaveral Space Force Station

Loading…

Prochains Passages (prochaines 24 heures)

TLE

FraisSource: CelesTrak SupGP

Époque: Sep 15, 2026, 02:31 UTC

1 64930C 25157AC  26258.10534722 -.00061439  00000+0 -19758-2 0  2583
2 64930  53.1571 184.2251 0001294  80.9253  38.5715 15.31731603    12

Suivez STARLINK-34220 en temps réel avec AllMySat

Download on the App Store